Location: Ottawa
(45.4170°N, 75.7000°W)
Time: 18:47:44
(UTC-05:00)

ISS - Visible Passes

Search period start: 25 January 2020 00:00
Search period end: 04 February 2020 00:00
Orbit: 416 x 423 km, 51.6° (Epoch: 26 January)

Date Brightness Start Highest point End Pass type
(mag) Time Alt. Az. Time Alt. Az. Time Alt. Az.
25 Jan -3.7 17:50:12 10° WSW 17:53:35 79° NNW 17:56:22 15° ENE visible
25 Jan -1.4 19:27:43 10° WNW 19:29:20 21° NW 19:29:20 21° NW visible
26 Jan -2.6 18:39:59 10° W 18:43:07 33° NNW 18:43:49 30° NNE visible
27 Jan -2.9 17:52:16 10° W 17:55:30 41° NNW 17:58:15 13° NE visible
27 Jan -1.2 19:29:54 10° WNW 19:31:13 19° NW 19:31:13 19° NW visible
28 Jan -2.4 18:42:12 10° WNW 18:45:10 27° N 18:45:39 26° NNE visible
29 Jan -2.4 17:54:28 10° WNW 17:57:29 29° N 18:00:04 13° NE visible
29 Jan -1.3 19:31:47 10° NW 19:33:02 19° NW 19:33:02 19° NW visible
30 Jan -2.5 18:44:12 10° NW 18:47:12 29° N 18:47:27 28° NNE visible
31 Jan -2.4 17:56:32 10° WNW 17:59:30 27° N 18:01:54 13° ENE visible
31 Jan -1.4 19:33:29 10° NW 19:34:52 22° NW 19:34:52 22° NW visible
01 Feb -3.1 18:45:56 10° NW 18:49:09 39° NNE 18:49:21 38° NNE visible
02 Feb -2.7 17:58:21 10° NW 18:01:27 32° NNE 18:03:54 14° ENE visible
02 Feb -1.7 19:35:07 10° WNW 19:36:52 28° WNW 19:36:52 28° WNW visible
03 Feb -3.8 18:47:31 10° WNW 18:50:55 71° NNE 18:51:29 55° E visible
